Showing default

GRUS-1A, 43890

Orbit data source: Space-Track

GRUS-1A, 43890 is a payload satellite in SSO that was launched on Thu, 27 Dec 2018 UTC via a SOYUZ-2-1A launch vehicle from the Vostochny Cosmodrome (VOSTO). Payload-class satellites include a variety of spacecraft equipped with specific instruments for various scientific and technological missions. These include communications satellites like Starlink; space stations such as the ISS; scientific satellites like the Hubble; Earth observation satellites from companies like Planet Labs, Umbra, and HawkEye 360; GPS; miniature CubeSats for education and research; and military/defense satellites.

Loading next visibility...
Identifier
43890, 2018-111Q
Orbit
SSO
Country
Flag of TBDTBD
Related business
Manufacturer
AXELSPACE
Mission
Operational Commercial Imaging
Bus & Motor
GRUS, Unknown motor
Mass
80 kg wet, 80 kg dry
Launch date (UTC)
2018-12-27 (8 years ago)
Launch vehicle
SOYUZ-2-1A
Launch site
Vostochny Cosmodrome (VOSTO)
Object type
Payload
Rocket body
Debris
Shape & HBR
Box, 1.0 m
Radar Cross Section
0.375 m², Medium (>0.1 m² and < 1m²)

Expand to show TLE details & history
Last TLE update: 12 hours ago

TLE from 12 hours ago
0 GRUS-1A
1 43890U 18111Q   26255.29292869  .00000604  00000-0  54656-4 0  9993
2 43890  97.4368 118.4911 0007130 215.4047 144.6704 14.98850458420758
Epoch: 2026-09-12T07:01Z
TLE epoch observation values (Epoch: 2026-09-12T07:01:49.038Z)
Latitude
-0.00004°
Longitude
21.73277°
Altitude
577.552 km
Speed
7.57 km/s
True Right ascension
07h 53m 57s
True Declination
0° 00' 00"
Sunlit
Object was in daylight at epoch
Visualization orbit readout
Latitude
Unknown
Longitude
Unknown
Altitude
Unknown
Speed
Unknown
Apparent Right ascension
Unknown
Apparent Declination
Unknown
Sunlit
N/A
Visualization observer readout
Local Sidereal Time
11:47:05
Azimuth
Unknown
Elevation
Unknown
Doppler factor
Unknown
Orbital elements
Apogee altitude
572.394 km
Perigee altitude
562.49 km
Semi-major axis
6,945.579 km
Eccentricity
0.00071
Inclination
97.4368°
RAAN
118.4911°
Arg. of periapsis
215.4047°
True anomaly
144.71761°
Mean anomaly
144.6704°
Eccentric anomaly
144.69401°
Mean motion
3.74956 °/min
Orbital period
96.01 mins
BSTAR
0.000054656
Loading maneuver chart data...
Computing Atmospheric mass density...

Documentation

Showing up to 5 results
|